Location: Brantley
(31.5822°N, 86.2569°W)
Time: 13:10:44
(UTC+00:00)

Vanguard 2 - Pass Details

Date: 21 February 2026
Orbit: 553 x 2896 km, 32.9° (Epoch: 17 March)

Event Time Altitude Azimuth Distance (km) Brightness Sun altitude
Rises 13:09:36 0° 277° (W) 3,431 10.2 9.2°
Reaches altitude 10° 13:12:29 10° 279° (W) 2,243 9.3 9.8°
Maximum altitude 13:17:22 80° 7° (N) 608 7.2 10.8°
Drops below altitude 10° 13:21:19 10° 94° (E) 1,821 11.4 11.6°
Sets 13:23:27 0° 96° (E) 2,722 12.1 12.0°
